Tracking 30685 objects as of 17-Jun-2025
HD Live streaming from Space Station
objects crossing your sky now

COSMOS 1231

Track COSMOS 1231 now!
10-day predictions
COSMOS 1231 is classified as:


NORAD ID: 12110
Int'l Code: 1980-102D
Perigee: 1,412.4 km
Apogee: 1,471.5 km
Inclination: 74.0 °
Period: 114.5 minutes
Semi major axis: 7812 km
RCS: 0.7072 m2 (medium)
Launch date: December 23, 1980
Source: Commonwealth of Independent States (former USSR) (CIS)
Launch site: PLESETSK MISSILE AND SPACE COMPLEX (PKMTR)
Your satellite tracking list
Your tracking list is empty




NASA's NSSDC Master Catalog

Two Line Element Set (TLE):
1 12110U 80102D   25167.63523023  .00000001  00000-0  10756-3 0  9994
2 12110  73.9926 123.0253 0037831 253.4975 279.8167 12.57130357 41184
Source of the keplerian elements: AFSPC